Miscellaneous Local Product
Issued by NWS North Platte, NE

Home | Current Version | Previous Version | Graphics & Text | Print | Product List | Glossary On
Versions: 1 2 3 4 5 6 7 8 9 10 11 12 13 14 15 16 17 18 19 20 21 22 23 24 25 26 27 28 29 30 31 32 33 34 35 36 37 38 39 40 41 42 43 44 45 46 47 48 49 50
000
AXUS43 KLBF 251710
MISLBF


WESTERN AND NORTH CENTRAL NEBRASKA HOURLY WEATHER ROUNDUP
NATIONAL WEATHER SERVICE NORTH PLATTE NE
1200 PM CDT THU AUG 25 2016

NOTE: "FAIR" INDICATES FEW OR NO CLOUDS BELOW 12,000 FEET WITH NO
SIGNIFICANT WEATHER AND/OR OBSTRUCTIONS TO VISIBILITY.

NOTE: STATIONS NOT REPORTING VARIABLES SUCH AS SKY/WEATHER OR
PRESSURE ARE PROVIDED BY RAWS AND APRS NETWORKS AND ARE NOT UNDER
NATIONAL WEATHER SERVICE QUALITY CONTROL.

...OBSERVATIONS IN AND NEAR THE EASTERN PANHANDLE OF NEBRASKA...

CITY           SKY/WX    TMP DP  RH WIND       PRES   REMARKS
PINE RIDGE     CLOUDY    55  49  80 CALM      30.32F
CHADRON        CLOUDY    56  47  71 SE5       30.31F
ALLIANCE       PTSUNNY   59  44  57 N13       30.31F
SIDNEY         SUNNY     65  46  50 NE13      30.31S
CRESCENT LAKE    N/A     65  44  46 NE7G16      N/A
$$

...OBSERVATIONS IN NORTHERN NEBRASKA AND FAR SOUTHERN SOUTH DAKOTA...

CITY           SKY/WX    TMP DP  RH WIND       PRES   REMARKS
WINNER         FAIR      68  50  52 NW14G22   30.24R
VALENTINE      SUNNY     66  45  46 NW14      30.28R
THEDFORD       SUNNY     68  47  47 N10       30.28S
AINSWORTH      SUNNY     64  50  59 N12       30.27R
O`NEILL        PTSUNNY   66  48  50 N8        30.23F
ORD            SUNNY     71  49  45 N8        30.21F
BROKEN BOW     SUNNY     67  49  52 NE7       30.24F
VALENTINE NWR    N/A     64  47  55 N9G18       N/A
BUTTE            N/A     64  50  61 NW8         N/A
HALSEY           N/A     67  46  46 N7          N/A
EWING            N/A     67  53  61 N8          N/A
$$

...OBSERVATIONS IN SOUTHWEST NEBRASKA AND FAR NORTHEAST COLORADO...

CITY           SKY/WX    TMP DP  RH WIND       PRES   REMARKS
HOLYOKE        FAIR      73  46  38 NE9       30.28S
IMPERIAL       SUNNY     70  46  42 E8        30.25F
OGALLALA       SUNNY     71  42  34 NE8       30.27S
NORTH PLATTE   SUNNY     72  49  44 NE10      30.25S
MCCOOK         MOSUNNY   72  49  44 E8G16     30.23S
LEXINGTON      CLOUDY    70  52  52 NE10      30.23F
STAPLETON        N/A     67  50  54 NE3         N/A
GOTHENBURG       N/A     67  48  49 E8          N/A
CALLAWAY         N/A     67  52  57 E8          N/A
$$

...OBSERVATIONS IN CENTRAL LINCOLN COUNTY AREA...

CITY           SKY/WX    TMP DP  RH WIND       PRES   REMARKS
N.P. AIRPORT   SUNNY     72  49  44 NE10      30.25S
N.P. DOWNTOWN    N/A     68  49  50 NE9         N/A
N.P. HILLCREST   N/A     68  48  48 NE14        N/A
$$

...SOME OBSERVATIONS FROM AROUND THE REGION...

CITY           SKY/WX    TMP DP  RH WIND       PRES   REMARKS
DENVER         MOSUNNY   59  46  62 VRB6      30.31S
LARAMIE        SUNNY     58  41  53 S15       30.32F
CHEYENNE       PTSUNNY   56  43  61 N8        30.34F
SCOTTSBLUFF    SUNNY     63  45  51 NE10      30.31F
RAPID CITY     CLOUDY    62  44  51 W6        30.30F
BISMARCK       CLOUDY    62  50  64 N15       30.17R
PIERRE         SUNNY     65  47  52 NW15      30.21S
SIOUX FALLS    CLOUDY    67  54  63 NW13      30.16S
OMAHA          CLOUDY    68  62  81 N5        30.14R
GRAND ISLAND   MOSUNNY   71  54  54 N12       30.21S
KANSAS CITY    CLOUDY    79  68  69 CALM      30.09S
WICHITA        MOSUNNY   79  66  64 VRB3      30.09F
OKLAHOMA CITY  MOSUNNY   88  68  51 S8        30.09F HX  91
DALLAS         PTSUNNY   90  67  46 SW9       30.10S HX  93
AMARILLO       MOSUNNY   73  61  65 VRB3      30.21S
DODGE CITY     CLOUDY    65  61  87 N10       30.19S
HAYS           CLOUDY    70  52  52 NE13      30.19F
GOODLAND       SUNNY     69  47  45 E15G21    30.25S
$$




USA.gov is the U.S. government's official web portal to all federal, state and local government web resources and services.